GFSMA_925_thetae_276.txt.gz
Theta_e
322 329 330 330 329 327 326 326 325 325 324 325 326 326 327 326 324 325 324 324 325 325 325 323 322 320 318 316 316 315 314 313 312 311 311 310 309 307 306 305 305 304 304
306 310 322 329 329 328 326 325 325 325 324 326 325 323 324 325 325 324 324 323 324 324 324 324 322 320 319 318 316 315 314 313 311 311 310 309 307 305 304 303 303 302 301
304 307 307 311 327 327 326 326 324 324 324 325 325 324 323 325 325 324 324 324 324 324 323 323 322 320 319 317 316 315 314 313 311 310 309 307 305 304 303 302 302 301 300
304 303 305 305 309 325 325 325 324 324 324 323 325 325 325 324 324 324 324 323 324 324 323 322 321 321 320 318 317 315 314 313 311 310 308 306 305 303 302 301 300 300 299
303 304 305 305 305 310 325 325 324 323 323 322 323 324 325 324 323 323 323 323 324 323 323 322 321 320 319 319 317 316 314 312 311 310 308 306 304 302 301 300 299 299 298
300 302 307 304 304 305 306 324 324 324 323 322 321 322 323 324 323 323 323 323 323 323 323 321 321 319 319 318 318 317 315 313 311 309 308 306 304 302 300 299 298 298 297
299 300 302 302 302 303 304 306 323 324 323 322 315 309 313 318 320 321 321 321 322 323 323 321 321 319 319 318 317 317 316 314 312 310 307 305 304 301 300 298 297 297 296
296 297 298 301 304 305 304 304 305 323 323 317 317 311 306 304 304 315 318 317 320 322 321 321 321 319 318 317 316 317 317 315 312 309 307 305 302 301 299 297 297 296 296
295 296 297 298 301 304 304 303 304 306 321 312 320 316 309 318 301 300 306 313 312 318 318 320 320 319 318 317 316 316 315 314 312 309 307 304 302 300 298 296 295 295 295
292 293 296 299 301 302 304 304 304 306 310 314 317 318 317 314 315 303 297 299 310 307 313 314 317 318 317 317 316 315 314 313 311 308 306 303 301 298 297 295 294 294 294
291 293 295 298 301 304 305 309 308 307 309 312 315 318 314 308 314 304 299 294 297 305 309 308 312 315 318 316 315 314 313 312 308 305 303 300 298 297 295 294 293 293 293
289 290 292 293 295 298 299 301 304 304 305 308 315 318 316 313 311 309 303 302 302 296 302 307 309 313 313 315 314 314 313 311 307 303 299 296 295 294 292 292 292 292 292
289 289 290 292 293 295 297 300 303 305 305 305 309 315 317 316 316 314 313 300 297 290 296 297 301 304 307 311 313 313 311 307 302 296 295 293 291 290 289 289 290 290 290
288 289 290 292 294 296 298 299 300 303 305 306 309 315 317 316 315 313 314 305 296 291 290 292 295 297 302 304 308 311 308 303 296 293 295 291 289 288 286 287 287 288 288
289 289 289 290 291 292 294 295 297 300 306 308 313 316 316 316 314 312 313 309 309 300 296 291 293 295 298 300 302 305 300 294 292 294 294 290 291 289 287 285 286 287 287
289 289 290 290 292 293 294 296 297 301 307 309 313 315 315 315 313 310 310 307 312 311 305 293 293 294 296 296 295 296 293 291 291 294 292 293 292 288 286 283 285 285 286
289 289 290 291 291 292 295 296 298 300 302 310 313 315 315 315 312 308 308 306 309 309 308 294 295 292 292 293 292 292 292 292 290 291 291 290 288 287 283 284 284 284 284
290 290 291 292 292 294 294 296 298 300 302 307 312 313 313 312 309 307 306 305 306 308 301 294 291 289 291 291 291 290 288 288 287 286 287 286 286 286 284 283 282 282 281
290 291 292 292 292 292 293 293 294 298 300 303 311 312 312 312 307 306 304 303 303 301 300 291 286 288 287 286 286 286 286 286 286 285 284 284 284 283 282 282 281 280 279
289 290 291 293 293 293 294 294 294 295 300 304 311 310 310 308 305 301 301 301 299 298 295 291 287 286 284 283 284 283 282 283 282 282 282 282 281 281 281 280 280 278 277
289 289 291 292 293 294 295 294 295 298 300 302 303 304 305 304 302 303 299 297 298 295 290 288 285 284 282 282 282 281 279 279 280 281 280 280 279 279 279 279 278 275 275
288 289 289 291 292 293 295 296 298 297 297 297 295 298 298 299 299 299 299 298 298 294 288 286 284 283 282 282 281 280 278 278 278 278 280 278 276 277 276 276 275 274 274
286 287 288 288 290 291 292 292 293 293 292 292 292 293 292 293 294 293 292 292 292 291 291 291 284 283 281 281 281 279 280 279 277 278 279 275 274 275 275 275 274 274 274
285 285 286 287 288 288 288 287 289 290 289 288 289 289 289 289 292 292 291 290 288 288 289 290 286 283 282 281 282 281 279 278 275 274 274 274 274 274 274 274 274 274 274
284 284 285 286 286 286 287 288 288 285 285 285 288 287 286 288 290 291 289 285 284 283 285 286 285 284 282 282 283 282 279 276 271 272 273 273 272 273 273 273 273 273 273
283 283 284 284 285 285 285 285 285 284 283 284 284 284 285 286 286 287 287 283 281 281 281 282 281 281 279 279 282 283 282 276 272 271 273 273 272 273 273 273 273 273 273

GFSMA_925_thetae_279.txt.gz
Theta_e
305 307 312 325 329 329 328 327 326 326 326 326 324 323 326 327 327 327 326 326 326 327 327 327 324 323 322 320 318 318 317 316 315 314 314 313 310 310 309 308 307 306 305
304 304 305 306 319 324 329 328 326 326 326 326 324 323 325 326 326 326 326 326 326 326 326 326 324 323 322 319 319 318 317 316 314 314 313 311 309 308 307 306 305 305 303
304 304 304 304 305 309 319 328 327 326 326 326 324 323 323 325 324 325 325 325 325 326 326 325 325 323 322 320 319 318 317 316 314 313 311 311 308 307 305 305 304 303 302
301 302 303 304 304 305 307 312 326 325 325 325 325 324 323 322 322 324 325 325 325 326 325 324 324 323 322 321 319 318 318 315 314 312 311 309 308 306 304 304 303 302 302
300 300 301 303 305 304 305 307 312 325 324 324 324 324 324 323 322 322 324 324 324 325 325 324 323 323 321 321 320 319 317 316 313 313 311 309 307 305 304 303 302 301 300
298 299 300 301 307 309 306 305 307 312 323 323 323 324 324 324 323 323 323 324 324 324 324 324 323 322 320 320 320 319 318 316 314 313 311 309 307 305 304 303 301 301 300
295 297 299 301 302 308 306 303 305 307 308 323 322 319 321 323 323 323 322 323 324 323 324 323 323 322 321 320 320 319 318 317 315 313 311 309 307 305 304 302 301 300 299
292 293 295 297 299 300 303 304 304 306 307 310 320 317 312 310 311 315 321 322 322 322 323 323 323 322 321 320 319 319 319 319 316 314 312 310 308 305 304 302 301 300 299
292 293 295 296 296 297 299 303 304 305 305 308 312 318 311 321 305 307 308 315 321 323 322 322 322 321 320 320 319 318 318 318 318 315 312 310 308 306 304 302 300 299 298
289 290 291 291 293 297 299 300 303 304 304 306 310 313 319 317 317 306 300 307 310 319 321 321 320 320 320 319 319 318 317 318 317 314 312 310 308 306 304 302 300 298 297
288 288 289 291 293 295 297 299 302 303 304 305 307 312 318 313 316 313 305 299 302 307 318 318 318 320 318 319 318 318 317 317 317 314 311 309 307 305 303 301 299 297 296
288 288 288 289 290 292 294 298 302 303 304 304 305 310 312 315 314 316 312 311 307 301 309 314 315 316 318 317 318 318 317 317 316 314 310 308 305 303 302 300 298 296 295
288 288 289 289 289 290 292 293 296 299 303 307 307 308 310 313 318 317 318 303 307 295 299 304 310 312 314 315 315 317 317 316 315 313 309 306 303 301 299 298 296 295 294
288 289 289 289 290 290 291 292 294 295 299 303 304 305 308 310 315 317 317 306 298 294 293 299 305 307 310 312 312 314 317 316 315 311 307 303 300 297 296 295 294 293 292
289 289 289 289 290 290 290 293 296 298 298 301 304 304 305 307 312 316 315 314 312 303 299 293 296 303 308 310 311 311 312 315 314 308 304 299 296 294 292 292 291 291 290
289 290 290 290 290 289 290 291 291 292 294 297 300 304 306 307 312 315 315 315 313 314 309 297 295 298 302 303 306 307 309 309 309 303 297 295 293 292 290 289 289 290 289
287 288 291 290 289 290 290 291 292 294 296 298 299 302 306 310 312 313 313 312 311 313 308 294 295 297 295 298 300 303 304 300 298 295 293 292 292 292 289 288 287 287 288
286 287 289 290 289 290 291 291 292 294 295 297 298 301 307 311 313 312 311 310 310 311 303 293 291 292 292 293 294 295 294 294 293 291 290 291 290 288 287 286 286 285 285
287 287 288 289 289 290 291 292 294 293 296 297 299 301 306 310 311 309 309 307 307 307 305 296 292 292 290 291 291 289 289 288 289 288 288 287 287 286 286 285 284 283 282
287 288 289 289 290 291 291 292 292 293 293 294 296 298 303 310 308 307 306 305 306 302 297 292 290 288 287 286 286 284 284 286 286 286 286 285 285 284 284 283 283 282 280
287 288 289 290 290 291 291 291 291 293 293 293 295 297 300 308 308 309 307 302 301 296 293 290 287 286 284 284 284 284 282 282 283 284 284 283 283 283 283 282 281 280 279
286 287 288 289 291 291 291 292 293 294 294 294 295 299 302 306 308 306 305 302 303 297 291 290 288 287 285 285 284 283 280 280 280 281 282 281 281 281 281 280 280 279 276
285 286 286 288 289 291 294 294 293 293 293 293 294 295 295 296 296 297 296 297 297 296 297 294 287 286 284 284 283 281 281 281 279 279 281 277 278 279 279 278 277 276 275
284 285 286 286 287 288 288 289 291 290 289 289 290 290 290 291 293 293 293 291 290 291 293 293 290 288 286 284 283 282 281 280 278 277 279 276 277 277 275 275 275 276 276
284 284 285 285 286 286 286 286 287 286 286 286 288 289 290 289 289 292 289 285 285 284 286 288 287 286 285 283 283 282 279 280 273 274 277 275 273 273 274 274 274 273 274
283 283 283 284 285 286 285 285 285 284 284 284 285 285 286 286 286 289 287 284 282 283 283 283 283 282 281 281 282 283 282 279 273 273 274 274 272 273 272 272 272 272 273

GFSMA_925_thetae_285.txt.gz
Theta_e
310 311 311 310 305 305 318 328 328 329 331 330 330 329 329 328 327 328 328 326 327 329 330 331 331 329 328 327 324 323 323 321 321 319 318 318 317 316 315 313 311 310 309
309 309 310 311 312 307 304 306 322 327 328 328 330 329 328 328 327 327 327 327 327 328 328 330 330 330 329 327 325 324 323 320 321 319 318 318 316 315 314 313 311 310 308
307 307 308 309 309 311 310 305 304 307 321 325 327 328 328 327 327 327 328 328 327 327 329 327 329 329 329 327 326 324 323 322 321 319 318 317 315 314 314 312 311 309 308
304 305 305 306 307 308 311 311 308 304 304 309 323 328 328 327 327 327 328 328 328 327 328 328 326 328 327 327 326 325 323 322 321 319 318 317 315 313 313 312 310 309 308
302 302 303 304 305 306 308 309 310 309 308 306 306 319 327 327 326 327 326 327 327 328 328 327 328 325 326 326 326 326 323 322 322 319 317 317 315 313 313 311 310 309 308
299 299 300 301 302 304 306 307 310 310 309 308 308 308 315 326 326 326 326 326 327 328 328 327 327 326 326 326 325 325 324 323 322 319 318 317 315 314 313 311 310 309 307
297 297 297 298 299 301 303 304 306 309 310 309 308 308 309 313 320 326 325 326 326 326 327 326 328 327 326 326 325 325 325 324 322 319 317 316 315 314 312 311 310 309 307
295 296 296 297 298 299 300 302 304 306 310 310 309 308 309 314 318 321 324 325 325 325 325 326 327 327 326 326 325 324 324 324 323 320 317 316 316 314 313 311 311 309 308
294 294 294 295 296 297 299 300 301 303 305 308 309 309 313 313 317 318 319 324 324 324 323 324 325 326 325 325 325 324 323 323 324 321 318 317 316 316 314 312 311 310 308
293 293 293 294 294 295 296 297 298 300 301 303 306 308 307 309 318 317 312 317 322 322 322 323 324 324 325 325 324 324 323 323 323 322 319 317 316 316 315 314 312 311 309
293 293 292 292 293 294 295 296 297 298 299 301 303 306 308 308 307 310 311 309 310 315 322 322 323 324 323 322 324 323 323 322 322 322 321 318 316 315 315 314 313 311 310
291 291 291 291 291 292 292 293 294 295 297 299 301 303 306 308 309 308 309 313 311 312 312 322 322 322 323 324 323 323 323 322 322 321 322 319 317 315 314 314 313 312 310
289 290 290 290 290 291 291 292 292 293 294 296 298 301 303 305 307 309 309 309 313 311 312 313 318 321 322 323 323 323 322 322 322 321 321 321 318 316 314 314 313 312 311
288 288 288 289 289 290 290 291 292 292 292 293 295 297 298 302 305 307 308 312 305 299 299 306 312 315 318 320 321 322 322 321 321 321 320 321 319 317 315 314 312 311 310
287 287 288 288 289 289 290 290 291 291 292 292 293 294 296 298 300 305 306 308 312 312 305 302 305 310 312 315 317 319 320 320 321 321 321 320 320 318 316 314 313 311 310
286 286 286 287 287 288 289 290 291 291 291 292 293 293 294 297 298 300 305 306 308 310 312 310 305 310 309 311 310 312 317 318 320 320 320 319 319 318 316 314 312 311 308
285 286 286 286 287 287 288 288 289 290 291 292 292 292 292 294 297 299 303 307 307 308 309 301 304 304 306 304 305 307 310 313 314 316 318 318 318 318 318 313 312 310 306
285 285 286 286 287 287 287 288 289 291 291 291 292 292 292 292 294 298 299 302 306 306 307 298 298 298 298 301 301 301 304 306 308 309 311 314 316 317 315 311 309 305 302
284 285 286 287 287 287 288 288 288 290 291 291 291 291 292 294 294 296 298 300 305 307 308 304 293 295 295 296 296 296 297 298 301 304 305 307 310 310 309 306 303 299 296
285 285 286 286 287 287 289 288 288 289 290 291 291 291 292 293 294 297 299 301 302 304 308 304 296 293 293 292 294 293 293 296 296 299 300 301 301 300 298 295 293 292 292
285 286 286 286 287 287 289 289 288 289 289 290 291 291 291 292 294 297 298 298 300 303 303 299 293 290 290 289 291 292 286 288 289 289 291 291 292 291 290 291 291 291 290
285 285 286 286 287 287 289 292 290 289 290 290 291 291 292 292 292 293 295 296 298 301 303 301 296 294 290 291 290 288 285 288 284 284 285 285 289 287 288 288 288 288 287
286 285 286 286 287 287 288 292 291 290 290 291 291 291 292 292 293 294 296 297 298 299 303 302 296 295 290 289 289 286 288 288 281 284 285 280 285 285 285 285 285 285 284
286 285 285 286 287 287 287 287 289 289 289 289 290 292 292 293 295 296 296 295 294 297 298 297 297 294 295 290 288 288 285 281 281 282 284 279 280 280 282 283 283 283 282
286 286 285 284 286 286 287 287 286 286 286 287 288 289 290 291 290 293 292 290 289 288 291 294 293 292 291 288 288 286 281 282 280 280 283 280 278 278 280 281 281 280 280
286 285 285 284 283 286 286 286 286 286 286 286 286 287 288 288 288 290 289 287 285 285 285 285 285 284 284 284 285 286 283 283 279 279 281 280 277 279 277 278 279 279 278

GFSMA_925_thetae_291.txt.gz
Theta_e
305 306 306 306 306 308 309 308 307 307 305 318 325 329 328 328 329 329 328 327 326 326 327 330 332 329 332 330 328 326 327 325 321 320 320 320 319 320 320 319 318 317 317
302 303 303 304 305 306 307 309 310 308 308 307 305 321 328 328 328 328 328 327 327 326 328 328 330 331 331 331 330 328 326 326 323 320 320 320 319 319 319 318 316 315 315
300 301 301 302 302 303 304 306 306 310 310 308 308 307 306 313 327 328 328 328 327 325 326 327 328 330 330 330 330 329 327 326 324 322 320 319 319 318 318 316 315 315 314
299 299 299 299 300 301 302 303 304 305 308 310 309 308 308 307 307 320 327 327 327 327 326 326 328 328 330 330 331 329 328 327 325 323 320 319 319 318 317 316 315 314 315
298 297 298 298 298 298 299 300 301 302 304 307 309 309 308 308 308 306 311 325 327 327 326 327 325 326 326 327 331 330 329 326 326 323 320 319 319 318 317 316 316 315 313
296 296 296 296 296 296 297 297 298 300 301 303 304 307 308 309 309 308 308 307 322 326 325 326 325 326 326 326 327 331 330 326 325 325 321 320 319 318 317 316 316 316 314
296 295 295 295 295 296 296 297 297 298 299 300 304 305 306 307 308 308 308 307 306 320 326 326 325 325 325 326 325 327 329 330 326 325 322 321 319 318 318 316 317 317 315
294 293 293 293 293 293 294 294 295 296 298 299 302 304 305 306 307 307 307 307 306 306 319 325 326 326 325 326 327 325 327 330 327 326 324 322 321 319 318 317 318 317 316
292 292 292 292 293 293 293 293 294 295 296 297 299 302 307 306 302 308 309 308 307 308 316 321 324 325 325 324 324 325 324 327 328 326 325 323 322 320 319 318 317 318 316
291 290 291 291 292 293 293 293 293 294 295 296 297 298 300 301 305 307 306 307 306 309 314 321 323 323 321 323 324 323 325 325 325 327 326 324 323 321 319 318 317 318 317
289 289 289 289 290 291 292 292 292 292 293 294 295 296 297 298 300 302 305 305 306 305 306 310 317 320 321 324 323 324 323 325 325 325 327 325 324 322 321 320 318 317 318
288 288 288 288 289 289 290 290 291 291 291 292 293 294 296 298 299 300 301 303 304 304 304 305 306 309 315 320 318 314 321 325 325 325 325 326 325 323 322 321 319 317 317
288 288 287 287 288 288 288 289 289 290 290 291 292 293 293 294 296 297 299 301 302 303 305 306 306 306 308 311 319 321 322 325 324 323 324 324 325 324 323 321 319 318 317
287 287 287 287 287 287 287 288 288 289 290 290 291 292 293 293 294 294 297 299 300 300 302 304 306 307 307 308 309 316 321 323 321 320 321 321 323 324 323 322 320 319 318
286 286 286 286 286 286 286 287 287 288 289 289 290 291 291 292 293 293 294 296 297 298 299 303 303 304 305 307 308 311 314 318 315 321 322 322 322 323 323 322 321 319 319
285 285 285 285 285 286 286 286 287 287 288 288 289 290 290 292 292 293 293 294 295 296 298 299 301 303 305 305 307 310 311 314 316 318 321 320 322 322 322 322 321 320 319
285 285 285 285 285 285 286 286 287 287 287 288 288 289 290 292 292 292 293 293 294 295 296 296 299 301 301 301 305 307 309 310 312 313 314 315 319 321 320 321 320 320 320
285 285 285 285 285 286 286 286 286 287 287 288 288 289 289 290 290 291 291 292 292 292 292 296 298 300 302 302 304 302 304 305 308 309 312 314 314 313 315 317 320 319 319
286 285 285 285 285 286 286 286 287 287 287 288 288 289 288 289 290 291 291 291 291 291 292 295 296 298 301 300 302 303 300 302 304 304 307 310 312 311 314 313 314 314 317
286 286 285 285 285 286 287 288 288 288 288 288 289 288 289 289 290 290 290 290 290 291 291 292 296 297 296 296 296 299 299 297 297 297 298 302 303 305 309 310 310 310 311
286 285 285 285 286 287 288 289 289 289 291 290 289 288 289 289 289 289 290 290 290 291 293 295 296 294 292 291 293 295 294 295 292 292 294 296 299 301 303 305 307 308 309
286 285 284 285 286 286 288 288 287 287 289 289 289 289 290 290 289 289 290 290 290 291 292 294 297 296 296 295 294 294 290 291 290 290 290 287 289 291 293 295 299 299 299
286 285 284 285 285 286 288 287 286 286 287 287 287 288 288 289 290 290 290 290 291 291 292 294 294 295 297 298 296 292 291 289 285 285 289 283 285 286 288 289 289 290 289
284 284 283 282 285 285 287 287 286 286 286 286 287 288 288 289 289 290 290 290 290 291 292 293 294 295 296 299 297 295 292 285 283 285 287 281 282 283 286 287 289 290 292
283 283 282 281 283 285 285 286 286 285 285 285 285 286 287 288 289 290 290 290 289 290 291 293 294 296 296 296 297 293 286 286 283 281 283 281 280 280 283 285 286 286 286
283 283 281 281 280 281 283 285 285 284 283 282 283 284 286 286 287 289 288 287 284 283 284 285 286 287 288 287 287 290 288 287 282 283 282 281 280 282 279 280 283 284 284